Regional Weather Roundup
Issued by NWS

Home | Current Version | Previous Version | Text Only | Print | Product List | Glossary Off
Versions: 1 2 3 4 5 6 7 8 9 10 11 12 13 14 15 16 17 18 19 20 21 22 23 24 25 26 27 28 29 30 31 32 33 34 35 36 37 38 39 40 41 42 43 44 45 46 47 48 49 50

215
ASUS43 KMPX 170510
RWRMN
WEATHER ROUNDUP FOR MINNESOTA
NATIONAL WEATHER SERVICE TWIN CITIES/CHANHASSEN MN
1200 AM CDT TUE OCT 17 2017


NOTE: "FAIR" INDICATES FEW OR NO CLOUDS BELOW 12,000 FEET WITH NO
SIGNIFICANT WEATHER AND/OR OBSTRUCTIONS TO VISIBILITY. N/A MEANS
CURRENT SKY AND/OR WEATHER CONDITIONS ARE NOT AVAILABLE.

MNZ060>063-068>070-170600-
   Twin Cities Metro

CITY           SKY/WX    TMP DP  RH WIND       PRES   REMARKS
TWIN CITIES    CLEAR     57  40  52 SW9       29.96F
ST PAUL        CLEAR     51  41  68 E5        29.97F
CRYSTAL        CLEAR     56  36  47 SW6       29.95R
BLAINE         CLEAR     57  39  51 SW7       29.95S
LAKEVILLE      CLEAR     55  39  54 SW5       29.97S
EDEN PRAIRIE   CLEAR     53  39  59 SW7       29.96S
SOUTH ST PAUL  CLEAR     51  38  62 S3        29.96F
LAKE ELMO      FAIR      50  39  66 S6        29.97S
$$
MNZ001>005-007-008-013>017-022>024-027-028-170600-
   Northwest Minnesota

CITY           SKY/WX    TMP DP  RH WIND       PRES   REMARKS
BEMIDJI        CLOUDY    45  35  68 W5        29.90R
HALLOCK        CLOUDY    41  28  60 S5        29.87R
ROSEAU           N/A     54  39  58 W9        29.85S
WARROAD        CLOUDY    50  39  66 W9        29.85R
THIEF RVR FALL CLOUDY    51  35  54 NW7       29.90R
CROOKSTON      CLOUDY    45  34  65 W3        29.91R
FOSSTON        CLOUDY    39  32  75 S6        29.91R
DETROIT LAKES  PTCLDY    48  41  76 CALM      29.93S
MOORHEAD       CLOUDY    48  37  66 CALM      29.93S
PARK RAPIDS    CLOUDY    45  38  76 SW5       29.91S
MAHNOMEN       FAIR      45  37  75 S7        29.91R
$$
MNZ006-009>011-018-025>026-170600-
   North Central Minnesota

CITY           SKY/WX    TMP DP  RH WIND       PRES   REMARKS
BAUDETTE       CLEAR     52  36  54 W10       29.84R
FLAG ISLAND    CLEAR     54  36  50 W12       29.81R
INTL FALLS     PTCLDY    48  36  63 W7        29.83R
WASKISH        CLOUDY    48  43  81 SW6       29.87S
BIG FORK       CLOUDY    46  37  71 SW3       29.87R
LONGVILLE      CLOUDY    45  39  81 W3        29.90R
GRAND RAPIDS   CLOUDY    54  39  57 SW5       29.90S
CRANE LAKE     CLEAR     48  37  66 S6        29.84S
ORR            CLEAR     46  36  66 CALM      29.83R
COOK           CLOUDY    50  37  62 SW5       29.86R
WALKER         FAIR      49  37  61 W6        29.89S
$$
MNZ012-019>021-037-170600-
   Northeast Minnesota

CITY           SKY/WX    TMP DP  RH WIND       PRES   REMARKS
DULUTH         CLOUDY    50  38  63 W12       29.88S
ELY            CLOUDY    48  36  61 SW8       29.84S
HIBBING        CLOUDY    37  34  89 CALM      29.86F
EVELETH        CLOUDY    41  39  93 CALM      29.87F
DULUTH HARBOR  CLOUDY    54  41  62 SW7       29.88S
TWO HARBORS    CLOUDY    54  41  62 SW6       29.85S
GRAND MARAIS     N/A     45  41  86 CALM      29.82F
G MARAIS ARPRT CLEAR     46  34  61 SW6       29.83S
$$
MNZ029>031-032-039>041-046>048-054>057-064-170600-
   West Central Minnesota

CITY           SKY/WX    TMP DP  RH WIND       PRES   REMARKS
FERGUS FALLS   CLOUDY    48  41  76 CALM      29.95R
WHEATON        CLEAR     50  41  71 W7        29.96S
MORRIS         CLEAR     48  41  76 W7        29.94R
ALEXANDRIA     CLOUDY    50  40  68 W8        29.95S
ELBOW LAKE     FAIR      47  41  77 CALM      29.95S
WADENA         CLOUDY    48  39  71 W5        29.92S
GLENWOOD       CLOUDY    50  41  71 W10       29.95S
APPLETON       CLEAR     46  39  76 SW6       29.95S
BENSON         CLEAR     46  39  76 W3        29.96S
ORTONVILLE     CLEAR     54  41  62 W9        29.95S
MADISON        CLEAR     52  43  71 W7        29.96R
WILLMAR        FAIR      46  39  76 CALM      29.97S
$$
MNZ033>034-036-042>043-049>051-058-059-170600-
   Central Minnesota

CITY           SKY/WX    TMP DP  RH WIND       PRES   REMARKS
ST CLOUD       CLOUDY    47  39  74 CALM      29.94S
SAUK CENTRE    FAIR      48  39  70 W6        29.94S
PAYNESVILLE    CLEAR     46  40  82 W3        29.95F
AITKIN         CLOUDY    50  37  62 SW6       29.90R
PINE RIVER     CLOUDY    48  37  66 CALM      29.95R
BRAINERD       CLOUDY    48  39  71 SW3       29.92R
STAPLES        CLOUDY    48  37  66 W3        29.93R
LONG PRAIRIE   FAIR      46  37  71 SW5       29.94S
LITTLE FALLS   PTCLDY    43  34  70 CALM      29.94R
LITCHFIELD     CLEAR     52  41  66 CALM      29.96S
BUFFALO        CLEAR     46  37  72 CALM      29.97S
MAPLE LAKE     CLEAR     50  40  69 CALM      29.96F
HUTCHINSON     CLOUDY    51  40  68 CALM      29.97S
$$
MNZ037-044-045-052-053-170600-
   East Central Minnesota

CITY           SKY/WX    TMP DP  RH WIND       PRES   REMARKS
PRINCETON      CLOUDY    52  39  62 CALM      29.94F
MORA           CLOUDY    39  36  87 CALM      29.95R
CAMBRIDGE      CLOUDY    48  37  66 CALM      29.94S
RUSH CITY      CLOUDY    44  38  79 CALM      29.94S
MOOSE LAKE     CLOUDY    43  36  75 CALM      29.89S
HINCKLEY       FAIR      39  37  93 CALM      29.93S
CLOQUET        CLOUDY    52  36  54 SW7       29.89S
MCGREGOR       CLOUDY    50  39  66 SW3       29.91R
$$
MNZ071>073-080-081-089-090-097-098-170600-
   Southwest Minnesota

CITY           SKY/WX    TMP DP  RH WIND       PRES   REMARKS
MONTEVIDEO     CLEAR     50  37  62 CALM      29.96R
GRANITE FALLS  CLEAR     44  40  85 SW5       29.98S
CANBY          CLEAR     56  41  56 SW9       29.98R
MARSHALL       CLEAR     54  41  61 W8        29.97F
REDWOOD FALLS  CLEAR     52  38  58 SW6       29.97S
OLIVIA         CLEAR     46  37  71 CALM      29.96S
PIPESTONE      CLEAR     48  37  66 SW5       30.01S
WORTHINGTON    CLEAR     54  39  57 SW10      30.02F
JACKSON        CLEAR     54  37  54 SW8       30.02S
TRACY          CLEAR     54  42  62 SW9       29.99S
SLAYTON        CLEAR     51  40  66 SW6       30.01F
$$
MNZ065>067-074>077-082>085-091>093-170600-
   South Central Minnesota

CITY           SKY/WX    TMP DP  RH WIND       PRES   REMARKS
MANKATO        CLEAR     54  39  57 SW6       29.99R
NEW ULM          N/A     50  37  62 SW5       29.98S
ST JAMES       CLEAR     54  39  58 SW6       30.00S
FAIRMONT       CLEAR     54  40  59 SW12      30.01S
GLENCOE        CLEAR     49  40  68 S6        29.96F
FARIBAULT      CLEAR     57  39  51 S8        29.99S
OWATONNA       CLEAR     57  39  51 S13G18    29.99F
WASECA         CLEAR     54  37  54 S9        30.01S
ALBERT LEA     CLEAR     61  41  48 SW13      30.01F
$$
MNZ078>079-086>088-094>096-170600-
   Southeast Minnesota

CITY           SKY/WX    TMP DP  RH WIND       PRES   REMARKS
ROCHESTER      CLEAR     55  39  54 SW21      30.02F
RED WING       CLEAR     54  36  50 CALM      29.97F
STANTON        CLEAR     54  39  56 SW8       29.96F
DODGE CENTER   CLEAR     54  37  54 S14       30.01R
WINONA         CLEAR     57  37  47 SW7G17    30.02S
AUSTIN         CLOUDY    52  39  62 S10       30.02F
PRESTON        CLEAR     53  37  54 SW15      30.04S
$$
ABBREVIATIONS USED IN REMARKS
   TC - TEMPERATURES IN CELSIUS
  WCI - WIND CHILL INDEX
   HX - HEAT INDEX
  VSB - VISIBILITY
$$




USA.gov is the U.S. government's official web portal to all federal, state and local government web resources and services.